Chadron, NE

9:01 AM MST on December 10, 2016 (GMT -0700)
Chadron Municipal

Weather History for KCDR - November, 2012

Change the Weather History Date:

Tuesday, November 6, 2012

  Actual Average Record
Temperature  
Mean Temperature 46 °F 39 °F  
Max Temperature 62 °F 54 °F 79 °F (1980)
Min Temperature 29 °F 23 °F 1 °F (1959)
Degree Days  
Heating Degree Days 19 26  
Month to date heating degree days 126 150  
Since 1 July heating degree days 797 903  
Cooling Degree Days 0 0  
Month to date cooling degree days 0 0  
Year to date cooling degree days 1167 712  
Moisture  
Dew Point 31 °F    
Average Humidity 62    
Maximum Humidity 92    
Minimum Humidity 32    
Precipitation  
Precipitation 0.00 in 0.02 in 0.30 in (1922)
Month to date precipitation T 0.16  
Year to date precipitation 7.26 17.07  
Sea Level Pressure  
Sea Level Pressure 30.20 in    
Wind  
Wind Speed 7 mph (West)    
Max Wind Speed 21 mph    
Max Gust Speed 28 mph    
Visibility 10 miles    
Events      
T = Trace of Precipitation, MM = Missing Value Source: NWS Daily Summary

Daily Weather History Graph

Daily Weather History Graph

Search for Another Location

Airport or City:

Trip Planner

Search our weather history database for the weather conditions in past years. The results will help you decide how hot, cold, wet, or windy it might be!

Date:

Astronomy

Nov. 06, 2012 Rise Set
Actual Time 6:33 AM MST 4:37 PM MST
Civil Twilight 6:03 AM MST 5:07 PM MST
Nautical Twilight 5:30 AM MST 5:41 PM MST
Astronomical Twilight 4:56 AM MST 6:14 PM MST
Moon 11:21 PM MST (11/6) 12:25 PM MST (11/6)
Length of Visible Light 11h 03m
Length of Day
10h 04m
Waning Gibbous, 52% of the Moon is Illuminated
Nov 6
Waning Gibbous
Nov 6
Last Quarter
Nov 13
New
Nov 20
First Quarter
Nov 28
Full

Hourly Weather History & Observations

Time (MST) Temp. Windchill Dew Point Humidity Pressure Visibility Wind Dir Wind Speed Gust Speed Precip Events Conditions
12:53 AM 37.9 °F 30.9 °F 34.0 °F 86% 30.13 in 10.0 mi WSW 10.4 mph - N/A   Partly Cloudy
1:53 AM 39.9 °F 35.1 °F 34.0 °F 79% 30.15 in 10.0 mi WSW 6.9 mph - N/A   Scattered Clouds
2:53 AM 39.0 °F - 34.0 °F 82% 30.16 in 10.0 mi Calm Calm - N/A   Scattered Clouds
3:53 AM 36.0 °F - 34.0 °F 93% 30.20 in 10.0 mi Calm Calm - N/A   Mostly Cloudy
5:53 AM 32.0 °F 24.2 °F 30.0 °F 92% 30.27 in 10.0 mi WSW 9.2 mph - N/A   Clear
6:53 AM 30.0 °F 24.1 °F 28.9 °F 96% 30.30 in 10.0 mi WSW 5.8 mph - N/A   Clear
7:53 AM 39.9 °F 35.1 °F 37.0 °F 89% 30.29 in 10.0 mi SW 6.9 mph - N/A   Clear
8:53 AM 45.0 °F 43.5 °F 37.9 °F 76% 30.29 in 10.0 mi WNW 3.5 mph - N/A   Clear
9:53 AM 50.0 °F - 37.9 °F 63% 30.27 in 10.0 mi Variable 3.5 mph - N/A   Clear
10:53 AM 55.9 °F - 36.0 °F 47% 30.23 in 10.0 mi WNW 11.5 mph - N/A   Clear
11:53 AM 57.9 °F - 34.0 °F 41% 30.22 in 10.0 mi WNW 15.0 mph 20.7 mph N/A   Clear
12:53 PM 60.1 °F - 33.1 °F 36% 30.18 in 10.0 mi WNW 12.7 mph - N/A   Clear
1:28 PM 60.8 °F - 32.0 °F 34% 30.14 in 1.5 mi WNW 16.1 mph 21.9 mph N/A   Haze
1:43 PM 60.8 °F - 30.2 °F 31% 30.14 in 10.0 mi West 12.7 mph 23.0 mph N/A   Clear
1:53 PM 61.0 °F - 30.9 °F 32% 30.15 in 10.0 mi NW 13.8 mph 27.6 mph N/A   Clear
2:53 PM 60.1 °F - 30.9 °F 33% 30.16 in 10.0 mi NW 15.0 mph - N/A   Clear
3:53 PM 60.1 °F - 33.1 °F 36% 30.17 in 10.0 mi WNW 9.2 mph - N/A   Clear
4:53 PM 52.0 °F - 28.9 °F 41% 30.19 in 10.0 mi WNW 8.1 mph - N/A   Clear
5:53 PM 45.0 °F 42.6 °F 28.0 °F 52% 30.23 in 10.0 mi NNE 4.6 mph - N/A   Clear
6:53 PM 42.1 °F 39.2 °F 27.0 °F 55% 30.23 in 10.0 mi NNE 4.6 mph - N/A   Clear
7:53 PM 39.9 °F - 27.0 °F 60% 30.20 in 10.0 mi Calm Calm - N/A   Clear
8:53 PM 35.1 °F - 27.0 °F 72% 30.21 in 10.0 mi Calm Calm - N/A   Clear
9:53 PM 33.1 °F 30.0 °F 26.1 °F 75% 30.20 in 10.0 mi SSW 3.5 mph - N/A   Clear
10:53 PM 30.9 °F - 26.1 °F 82% 30.17 in 10.0 mi Calm Calm - N/A   Clear
11:53 PM 28.9 °F 21.9 °F 25.0 °F 85% 30.16 in 10.0 mi WSW 6.9 mph - N/A   Clear